Home > Time Zones > World Clock > Weather > Spain > Cadiz > Past weeks

Flag for Spain Weather past 2 weeks in Cadiz, Cádiz, Spain

Now
63 °F

Partly sunny.


Feels Like: 63 °F
Forecast: 59 / 74 °F
Wind: No wind

Location: Rota Airport


UV Index: 5 (Moderate)

Visibility: 5 mi


Pressure: 30.09 "Hg

Humidity: 88%

Dew point: 59 °F

Location of CadizLocation

Historic Weather in Cadiz

°F

Cadiz temperature yesterday

Maximum temperature yesterday: 70 °F (at 4:00 PM)
Minimum temperature yesterday: 61 °F (at 11:00 PM)
Average temperature yesterday: 65 °F

Past Weeks' High & Low Weather Summary

 TemperatureHumidityPressure
High84 °F (Apr 8, 3:00 PM)100% (Apr 6, 7:00 AM)30.24 "Hg (Apr 6, 7:00 AM)
Low50 °F (Apr 4, 9:00 AM)29% (Apr 8, 3:00 PM)29.59 "Hg (Apr 2, 4:00 AM)
Average64 °F69%29.98 "Hg
* Reported Apr 1 11:00 AM — Apr 16 11:00 AM, Cadiz, Weather by CustomWeather, © 2014

Note: Actual official high and low records may vary slightly from our data, if they occured in-between our weather recording intervals... More about our weather records

Advertising

Historic Weather Conditions — Data for Previous 24 hours

 ConditionsComfort  
Time TempWeatherWind HumidityBarometerVisibility
11:00 AM
Apr 16
59 °FFog.No wind100%30.07 "Hg2 mi
10:00 AM57 °FFog.No wind100%30.07 "Hg0 mi
9:00 AM55 °FFog.3 mph100%30.07 "Hg0 mi
8:00 AM50 °FFog.No wind100%30.04 "Hg0 mi
7:00 AM55 °FFog.1 mph94%30.04 "Hg0 mi
6:00 AM55 °FFog.1 mph100%30.04 "Hg0 mi
5:00 AM54 °FFog.2 mph100%30.04 "Hg0 mi
4:00 AM54 °FFog.No wind100%30.04 "Hg1 mi
3:00 AM57 °FPassing clouds.No wind100%30.04 "Hg5 mi
1:00 AM61 °FFog.1 mph100%30.07 "Hg3 mi
12:00 AM61 °FPassing clouds.3 mph94%30.04 "Hg4 mi
11:00 PM
Apr 15
61 °FPassing clouds.3 mph94%30.04 "Hg6 mi
10:00 PM63 °FClear.3 mph88%30.01 "Hg6 mi
9:00 PM63 °FSunny.8 mph88%30.01 "Hg10 mi
8:00 PM66 °FSunny.10 mph78%30.01 "Hg10 mi
7:00 PM68 °FPassing clouds.9 mph73%29.98 "HgN/A
6:00 PM68 °FPassing clouds.12 mph73%30.01 "HgN/A
5:00 PM68 °FPassing clouds.9 mph73%30.01 "HgN/A
4:00 PM70 °FPassing clouds.9 mph69%30.01 "HgN/A
3:00 PM68 °FScattered clouds.12 mph73%30.04 "HgN/A
2:00 PM66 °FScattered clouds.10 mph78%30.04 "HgN/A
1:00 PM68 °FScattered clouds.12 mph69%30.04 "HgN/A
12:00 PM66 °FScattered clouds.9 mph73%30.04 "HgN/A
Weather by CustomWeather, © 2014

See weather overview